Faribault, MN

1:18 AM CDT on September 26, 2017 (GMT -0500)
Faribault Municipal

Weather History for KFBL - May, 2013

Change the Weather History Date:

Monday, May 6, 2013

  Actual Average Record
Temperature  
Mean Temperature 55 °F -  
Max Temperature 71 °F 66 °F 89 °F (2016)
Min Temperature 39 °F 39 °F 24 °F (1974)
Degree Days  
Heating Degree Days 10    
Growing Degree Days 5 (Base 50)    
Moisture  
Dew Point 48 °F    
Average Humidity 74    
Maximum Humidity 100    
Minimum Humidity 41    
Precipitation  
Precipitation 0.00 in - - ()
Sea Level Pressure  
Sea Level Pressure 30.07 in    
Wind  
Wind Speed 1 mph (West)    
Max Wind Speed 6 mph    
Max Gust Speed -    
Visibility 8 miles    
Events      
Averages and records for this station are not official NWS values.
T = Trace of Precipitation, MM = Missing Value Source: NWS Daily Summary

Daily Weather History Graph

Daily Weather History Graph

Search for Another Location

Airport or City:

Trip Planner

Search our weather history database for the weather conditions in past years. The results will help you decide how hot, cold, wet, or windy it might be!

Date:

Astronomy

May. 06, 2013 Rise Set
Actual Time 5:56 AM CDT 8:23 PM CDT
Civil Twilight 5:24 AM CDT 8:56 PM CDT
Nautical Twilight 4:43 AM CDT 9:36 PM CDT
Astronomical Twilight 3:58 AM CDT 10:23 PM CDT
Moon 4:06 AM CDT (5/6) 5:18 PM CDT (5/6)
Length of Visible Light 15h 31m
Length of Day
14h 26m
Waning Crescent, 11% of the Moon is Illuminated
May 6
Waning Crescent
May 9
New
May 17
First Quarter
May 24
Full
May 31
Last Quarter

Hourly Weather History & Observations

Time (CDT) Temp. Windchill Dew Point Humidity Pressure Visibility Wind Dir Wind Speed Gust Speed Precip Events Conditions
12:01 AM 46.4 °F - 46.4 °F 100% 30.09 in 4.0 mi South 1.2 mph - N/A   Clear
12:21 AM 46.4 °F - 46.4 °F 100% 30.09 in 7.0 mi Calm Calm - N/A   Clear
12:41 AM 46.4 °F - 46.4 °F 100% 30.09 in 4.0 mi Calm Calm - N/A   Clear
1:21 AM 44.6 °F - 44.6 °F 100% 30.09 in 1.2 mi Calm Calm - N/A   Unknown
1:41 AM 44.6 °F - 44.6 °F 100% 30.08 in 2.0 mi West 1.2 mph - N/A   Clear
2:01 AM 44.6 °F - 44.6 °F 100% 30.08 in 2.0 mi SSE 1.2 mph - N/A   Clear
2:21 AM 44.6 °F - 44.6 °F 100% 30.08 in 3.0 mi Calm Calm - N/A   Clear
2:41 AM 44.6 °F - 44.6 °F 100% 30.08 in 2.0 mi Calm Calm - N/A   Clear
3:01 AM 44.6 °F - 44.6 °F 100% 30.08 in 0.5 mi Calm Calm - N/A   Overcast
3:21 AM 42.8 °F - 42.8 °F 100% 30.08 in 1.0 mi West 1.2 mph - N/A   Mostly Cloudy
3:41 AM 44.6 °F - 44.6 °F 100% 30.08 in 5.0 mi West 2.3 mph - N/A   Clear
4:01 AM 42.8 °F - 42.8 °F 100% 30.08 in 5.0 mi West 1.2 mph - N/A   Clear
4:21 AM 42.8 °F - 42.8 °F 100% 30.08 in 0.8 mi Calm Calm - N/A   Unknown
4:41 AM 41.0 °F - 41.0 °F 100% 30.09 in 0.5 mi Calm Calm - N/A   Unknown
5:01 AM 42.8 °F - 42.8 °F 100% 30.09 in 1.8 mi Calm Calm - N/A   Unknown
5:21 AM 42.8 °F - 42.8 °F 100% 30.09 in 1.0 mi Calm Calm - N/A   Mostly Cloudy
5:41 AM 39.2 °F - 39.2 °F 100% 30.09 in 1.0 mi Calm Calm - N/A   Unknown
6:01 AM 41.0 °F - 41.0 °F 100% 30.10 in 0.2 mi Calm Calm - N/A   Unknown
6:21 AM 39.2 °F - 39.2 °F 100% 30.10 in 0.2 mi Calm Calm - N/A   Unknown
6:41 AM 39.2 °F - 39.2 °F 100% 30.10 in 5.0 mi Calm Calm - N/A   Clear
7:01 AM 42.8 °F - 42.8 °F 100% 30.11 in 3.0 mi Calm Calm - N/A   Clear
7:21 AM 44.6 °F - 44.6 °F 100% 30.11 in 4.0 mi Calm Calm - N/A   Clear
7:41 AM 46.4 °F 44.3 °F 46.4 °F 100% 30.11 in 7.0 mi West 4.6 mph - N/A   Clear
8:01 AM 48.2 °F - 48.2 °F 100% 30.12 in 7.0 mi WNW 2.3 mph - N/A   Clear
8:21 AM 48.2 °F - 48.2 °F 100% 30.12 in 7.0 mi WNW 3.5 mph - N/A   Clear
8:41 AM 51.8 °F - 48.2 °F 88% 30.11 in 10.0 mi NW 2.3 mph - N/A   Clear
9:01 AM 53.6 °F - 48.2 °F 82% 30.11 in 10.0 mi NW 2.3 mph - N/A   Clear
9:21 AM 55.4 °F - 48.2 °F 77% 30.11 in 10.0 mi NNW 2.3 mph - N/A   Clear
9:41 AM 57.2 °F - 51.8 °F 82% 30.11 in 10.0 mi NNW 2.3 mph - N/A   Clear
10:01 AM 57.2 °F - 50.0 °F 77% 30.11 in 10.0 mi NW 1.2 mph - N/A   Clear
10:21 AM 60.8 °F - 51.8 °F 72% 30.11 in 10.0 mi NNW 1.2 mph - N/A   Clear
10:41 AM 62.6 °F - 51.8 °F 68% 30.11 in 10.0 mi NW 2.3 mph - N/A   Clear
11:01 AM 62.6 °F - 51.8 °F 68% 30.11 in 10.0 mi NNW 1.2 mph - N/A   Clear
11:21 AM 64.4 °F - 51.8 °F 64% 30.11 in 10.0 mi NW 2.3 mph - N/A   Clear
11:41 AM 64.4 °F - 53.6 °F 68% 30.11 in 10.0 mi West 2.3 mph - N/A   Clear
12:01 PM 66.2 °F - 51.8 °F 60% 30.10 in 10.0 mi SE 2.3 mph - N/A   Clear
12:21 PM 66.2 °F - 51.8 °F 60% 30.10 in 10.0 mi East 2.3 mph - N/A   Clear
12:41 PM 66.2 °F - 51.8 °F 60% 30.09 in 10.0 mi NW 5.8 mph - N/A   Clear
1:01 PM 69.8 °F - 51.8 °F 53% 30.09 in 10.0 mi WSW 4.6 mph - N/A   Clear
1:21 PM 69.8 °F - 51.8 °F 53% 30.08 in 10.0 mi Calm Calm - N/A   Clear
1:41 PM 69.8 °F - 51.8 °F 53% 30.08 in 10.0 mi WSW 4.6 mph - N/A   Clear
2:01 PM 69.8 °F - 50.0 °F 49% 30.08 in 10.0 mi WSW 4.6 mph - N/A   Clear
2:21 PM 69.8 °F - 50.0 °F 49% 30.07 in 10.0 mi WSW 4.6 mph - N/A   Clear
2:41 PM 71.6 °F - 48.2 °F 43% 30.07 in 10.0 mi West 3.5 mph - N/A   Clear
3:01 PM 71.6 °F - 46.4 °F 41% 30.06 in 10.0 mi West 4.6 mph - N/A   Clear
3:21 PM 71.6 °F - 46.4 °F 41% 30.06 in 10.0 mi NW 3.5 mph - N/A   Clear
3:41 PM 71.6 °F - 48.2 °F 43% 30.05 in 10.0 mi WSW 4.6 mph - N/A   Clear
4:01 PM 71.6 °F - 46.4 °F 41% 30.05 in 10.0 mi West 1.2 mph - N/A   Clear
4:21 PM 71.6 °F - 48.2 °F 43% 30.04 in 10.0 mi NW 3.5 mph - N/A   Clear
4:41 PM 71.6 °F - 48.2 °F 43% 30.04 in 10.0 mi West 5.8 mph - N/A   Clear
5:01 PM 71.6 °F - 48.2 °F 43% 30.04 in 10.0 mi WSW 2.3 mph - N/A   Clear
5:41 PM 71.6 °F - 46.4 °F 41% 30.04 in 10.0 mi SW 2.3 mph - N/A   Clear
6:01 PM 71.6 °F - 46.4 °F 41% 30.04 in 10.0 mi SW 2.3 mph - N/A   Clear
6:21 PM 71.6 °F - 46.4 °F 41% 30.04 in 10.0 mi ESE 2.3 mph - N/A   Clear
6:41 PM 71.6 °F - 46.4 °F 41% 30.03 in 10.0 mi West 3.5 mph - N/A   Clear
7:01 PM 71.6 °F - 46.4 °F 41% 30.03 in 10.0 mi WNW 1.2 mph - N/A   Clear
7:21 PM 71.6 °F - 48.2 °F 43% 30.03 in 10.0 mi Calm Calm - N/A   Clear
7:41 PM 69.8 °F - 48.2 °F 46% 30.03 in 10.0 mi Calm Calm - N/A   Clear
8:01 PM 68.0 °F - 48.2 °F 49% 30.03 in 10.0 mi NNE 1.2 mph - N/A   Clear
8:21 PM 66.2 °F - 48.2 °F 52% 30.03 in 10.0 mi NE 1.2 mph - N/A   Clear
8:41 PM 64.4 °F - 48.2 °F 56% 30.03 in 10.0 mi East 2.3 mph - N/A   Clear
9:01 PM 62.6 °F - 50.0 °F 63% 30.03 in 10.0 mi Calm Calm - N/A   Clear
9:21 PM 62.6 °F - 50.0 °F 63% 30.04 in 10.0 mi Calm Calm - N/A   Clear
9:41 PM 60.8 °F - 51.8 °F 72% 30.04 in 10.0 mi Calm Calm - N/A   Clear
10:01 PM 60.8 °F - 50.0 °F 68% 30.04 in 10.0 mi Calm Calm - N/A   Clear
10:21 PM 57.2 °F - 51.8 °F 82% 30.05 in 10.0 mi Calm Calm - N/A   Clear
10:41 PM 57.2 °F - 51.8 °F 82% 30.05 in 10.0 mi Calm Calm - N/A   Clear
11:01 PM 57.2 °F - 51.8 °F 82% 30.05 in 10.0 mi Calm Calm - N/A   Clear
11:21 PM 55.4 °F - 53.6 °F 94% 30.05 in 10.0 mi SSE 1.2 mph - N/A   Clear
11:41 PM 55.4 °F - 53.6 °F 94% 30.05 in 10.0 mi SW 2.3 mph - N/A   Clear